SWA3356 KSFO-KLAX

Flight info

Callsign SWA3356
Flight time 0h 53m
Altitude 35000
Route WESLA5 SUSEY EBAYE BURGL IRNMN2
Aircraft B738/M-SDE2E3FGHIRWXY/LB1

Departure

Time 2026-04-23 03:12
Airport San Francisco International Airport (KSFO)

Arrival

Time 2026-04-23 04:05
Airport Los Angeles International Airport (KLAX)
Time Latitude Longitude Altitude Speed Heading
2026-04-23 02:52 37.61654 -122.38127 21 ft 0 kts
2026-04-23 03:03 37.61634 -122.38130 25 ft 4 kts 22°
2026-04-23 03:03 37.61616 -122.38148 24 ft 4 kts 75°
2026-04-23 03:03 37.61617 -122.38175 24 ft 1 kts 117°
2026-04-23 03:04 37.61617 -122.38176 24 ft 0 kts 117°
2026-04-23 03:06 37.61611 -122.38162 24 ft 5 kts 117°
2026-04-23 03:07 37.61589 -122.38109 22 ft 8 kts 117°
2026-04-23 03:07 37.61580 -122.38030 23 ft 8 kts 66°
2026-04-23 03:07 37.61640 -122.37981 21 ft 14 kts 28°
2026-04-23 03:07 37.61676 -122.37877 21 ft 14 kts 96°
2026-04-23 03:08 37.61664 -122.37759 21 ft 13 kts 97°
2026-04-23 03:08 37.61653 -122.37646 23 ft 13 kts 96°
2026-04-23 03:08 37.61641 -122.37530 21 ft 15 kts 97°
2026-04-23 03:08 37.61627 -122.37389 21 ft 18 kts 97°
2026-04-23 03:09 37.61599 -122.37226 22 ft 19 kts 116°
2026-04-23 03:09 37.61537 -122.37079 21 ft 19 kts 118°
2026-04-23 03:09 37.61473 -122.36936 23 ft 19 kts 127°
2026-04-23 03:09 37.61380 -122.36803 21 ft 21 kts 128°
2026-04-23 03:10 37.61308 -122.36645 21 ft 20 kts 117°
2026-04-23 03:10 37.61240 -122.36483 21 ft 21 kts 119°
2026-04-23 03:10 37.61170 -122.36317 22 ft 21 kts 118°
2026-04-23 03:10 37.61101 -122.36154 23 ft 21 kts 118°
2026-04-23 03:11 37.61052 -122.35989 21 ft 20 kts 84°
2026-04-23 03:11 37.61148 -122.35884 21 ft 19 kts
2026-04-23 03:11 37.61243 -122.36011 22 ft 32 kts 298°
2026-04-23 03:11 37.61459 -122.36525 22 ft 99 kts 299°
2026-04-23 03:12 37.61869 -122.37496 62 ft 146 kts 297°
2026-04-23 03:12 37.62326 -122.38651 677 ft 146 kts 295°
2026-04-23 03:12 37.62809 -122.39827 1237 ft 156 kts 299°
2026-04-23 03:12 37.63327 -122.41043 1898 ft 160 kts 301°
2026-04-23 03:13 37.63907 -122.42348 2506 ft 184 kts 302°
2026-04-23 03:13 37.64588 -122.43867 2794 ft 217 kts 300°
2026-04-23 03:13 37.65363 -122.45609 3251 ft 234 kts 301°
2026-04-23 03:13 37.66184 -122.47428 3973 ft 242 kts 299°
2026-04-23 03:14 37.66815 -122.49458 4685 ft 259 kts 280°
2026-04-23 03:14 37.66627 -122.51718 5693 ft 259 kts 248°
2026-04-23 03:14 37.66372 -122.52316 6089 ft 258 kts 235°
2026-04-23 03:14 37.65100 -122.53868 7208 ft 256 kts 213°
2026-04-23 03:15 37.63413 -122.54618 8053 ft 264 kts 181°
2026-04-23 03:15 37.61615 -122.54144 8898 ft 269 kts 158°
2026-04-23 03:15 37.59821 -122.53199 9432 ft 288 kts 156°
2026-04-23 03:15 37.57947 -122.52149 10133 ft 300 kts 157°
2026-04-23 03:16 37.55994 -122.51131 10948 ft 305 kts 156°
2026-04-23 03:16 37.54041 -122.50055 11810 ft 308 kts 158°
2026-04-23 03:16 37.50006 -122.47984 13474 ft 318 kts 158°
2026-04-23 03:17 37.48183 -122.46444 14209 ft 326 kts 134°
2026-04-23 03:17 37.46634 -122.44338 14954 ft 330 kts 133°
2026-04-23 03:17 37.45060 -122.42180 15638 ft 338 kts 133°
2026-04-23 03:17 37.43457 -122.39984 16329 ft 344 kts 134°
2026-04-23 03:18 37.41826 -122.37753 17050 ft 349 kts 134°
2026-04-23 03:18 37.40170 -122.35494 17772 ft 355 kts 134°
2026-04-23 03:18 37.38473 -122.33185 18474 ft 362 kts 135°
2026-04-23 03:18 37.36748 -122.30841 19041 ft 369 kts 135°
2026-04-23 03:19 37.34997 -122.28463 19733 ft 372 kts 135°
2026-04-23 03:19 37.33234 -122.26072 20425 ft 374 kts 135°
2026-04-23 03:19 37.31453 -122.23658 21074 ft 379 kts 135°
2026-04-23 03:19 37.29648 -122.21216 21680 ft 383 kts 136°
2026-04-23 03:20 37.27821 -122.18745 22285 ft 388 kts 136°
2026-04-23 03:20 37.25979 -122.16256 22969 ft 390 kts 136°
2026-04-23 03:20 37.24122 -122.13748 23601 ft 395 kts 136°
2026-04-23 03:20 37.22242 -122.11212 24118 ft 400 kts 136°
2026-04-23 03:21 37.20331 -122.08636 24600 ft 405 kts 137°
2026-04-23 03:21 37.18427 -122.06073 25077 ft 410 kts 137°
2026-04-23 03:21 37.16469 -122.03438 25490 ft 416 kts 137°
2026-04-23 03:21 37.14480 -122.00764 25957 ft 420 kts 137°
2026-04-23 03:22 37.12481 -121.98077 26496 ft 422 kts 138°
2026-04-23 03:22 37.10474 -121.95380 27088 ft 422 kts 138°
2026-04-23 03:22 37.08476 -121.92696 27696 ft 423 kts 139°
2026-04-23 03:22 37.06434 -121.89963 27827 ft 437 kts 139°
2026-04-23 03:23 37.04322 -121.87145 27939 ft 450 kts 139°
2026-04-23 03:23 37.02172 -121.84277 28029 ft 463 kts 139°
2026-04-23 03:23 36.99939 -121.81297 28118 ft 476 kts 138°
2026-04-23 03:23 36.97662 -121.78253 28446 ft 481 kts 139°
2026-04-23 03:24 36.95371 -121.75187 28897 ft 483 kts 139°
2026-04-23 03:24 36.93068 -121.72110 29299 ft 487 kts 139°
2026-04-23 03:24 36.90743 -121.69008 29663 ft 491 kts 139°
2026-04-23 03:24 36.88396 -121.65883 30025 ft 495 kts 139°
2026-04-23 03:25 36.86033 -121.62742 30387 ft 498 kts 139°
2026-04-23 03:25 36.83655 -121.59583 30687 ft 500 kts 140°
2026-04-23 03:25 36.81271 -121.56417 31088 ft 501 kts 140°
2026-04-23 03:25 36.78881 -121.53246 31428 ft 502 kts 140°
2026-04-23 03:26 36.76476 -121.50062 31727 ft 506 kts 140°
2026-04-23 03:26 36.74057 -121.46864 31984 ft 509 kts 140°
2026-04-23 03:26 36.71616 -121.43639 32279 ft 511 kts 140°
2026-04-23 03:26 36.69168 -121.40407 32560 ft 513 kts 140°
2026-04-23 03:27 36.66712 -121.37165 32872 ft 515 kts 140°
2026-04-23 03:27 36.64248 -121.33918 33163 ft 517 kts 140°
2026-04-23 03:27 36.61772 -121.30657 33434 ft 519 kts 140°
2026-04-23 03:27 36.59285 -121.27387 33687 ft 521 kts 140°
2026-04-23 03:28 36.56786 -121.24104 33980 ft 523 kts 140°
2026-04-23 03:28 36.54277 -121.20810 34205 ft 525 kts 140°
2026-04-23 03:28 36.51793 -121.17552 34422 ft 527 kts 141°
2026-04-23 03:28 36.49273 -121.14247 34769 ft 525 kts 141°
2026-04-23 03:29 36.46770 -121.10965 35208 ft 519 kts 141°
2026-04-23 03:29 36.44279 -121.07706 35192 ft 519 kts 141°
2026-04-23 03:29 36.39436 -121.01133 35197 ft 513 kts 138°
2026-04-23 03:30 36.34809 -120.94371 35220 ft 514 kts 137°
2026-04-23 03:30 36.30172 -120.87601 35206 ft 516 kts 138°
2026-04-23 03:31 36.25485 -120.80858 35192 ft 517 kts 138°
2026-04-23 03:31 36.20772 -120.74125 35187 ft 517 kts 138°
2026-04-23 03:32 36.16058 -120.67406 35178 ft 516 kts 138°
2026-04-23 03:32 36.11343 -120.60695 35174 ft 516 kts 138°
2026-04-23 03:33 36.06645 -120.54019 35161 ft 513 kts 138°
2026-04-23 03:33 36.01994 -120.47421 35177 ft 512 kts 138°
2026-04-23 03:34 35.97314 -120.40797 35178 ft 511 kts 139°
2026-04-23 03:34 35.92629 -120.34180 35135 ft 513 kts 139°
2026-04-23 03:35 35.87891 -120.27607 35158 ft 509 kts 143°
2026-04-23 03:35 35.85254 -120.24763 35156 ft 498 kts 153°
2026-04-23 03:35 35.82377 -120.22481 35169 ft 489 kts 159°
2026-04-23 03:36 35.76507 -120.18220 35124 ft 489 kts 159°
2026-04-23 03:36 35.70677 -120.13880 35152 ft 490 kts 158°
2026-04-23 03:37 35.64854 -120.09489 35168 ft 491 kts 158°
2026-04-23 03:37 35.59023 -120.05085 35145 ft 492 kts 158°
2026-04-23 03:38 35.53230 -120.00711 35157 ft 491 kts 158°
2026-04-23 03:38 35.47392 -119.96315 35155 ft 493 kts 158°
2026-04-23 03:39 35.41546 -119.91920 35139 ft 493 kts 158°
2026-04-23 03:39 35.35701 -119.87531 35143 ft 492 kts 158°
2026-04-23 03:40 35.32743 -119.85319 34709 ft 504 kts 157°
2026-04-23 03:40 35.29748 -119.83080 34105 ft 505 kts 157°
2026-04-23 03:40 35.26792 -119.80726 33396 ft 508 kts 153°
2026-04-23 03:40 35.23950 -119.78145 32678 ft 510 kts 150°
2026-04-23 03:41 35.21159 -119.75456 31911 ft 511 kts 149°
2026-04-23 03:41 35.18380 -119.72745 31312 ft 508 kts 149°
2026-04-23 03:41 35.15515 -119.70297 35727 ft 500 kts 159°
2026-04-23 03:41 35.12551 -119.68039 34969 ft 507 kts 152°
2026-04-23 03:42 35.09885 -119.65303 34451 ft 505 kts 145°
2026-04-23 03:42 35.07301 -119.62446 33640 ft 498 kts 147°
2026-04-23 03:42 35.04645 -119.59744 32520 ft 496 kts 149°
2026-04-23 03:42 35.01909 -119.57159 31329 ft 497 kts 150°
2026-04-23 03:43 34.99151 -119.54640 30405 ft 493 kts 150°
2026-04-23 03:43 34.96420 -119.52152 29572 ft 486 kts 150°
2026-04-23 03:43 34.93730 -119.49676 28713 ft 479 kts 150°
2026-04-23 03:43 34.91096 -119.47239 27845 ft 473 kts 150°
2026-04-23 03:44 34.88469 -119.44853 26946 ft 468 kts 151°
2026-04-23 03:44 34.85885 -119.42545 26040 ft 464 kts 150°
2026-04-23 03:44 34.83292 -119.40241 25230 ft 459 kts 150°
2026-04-23 03:44 34.80730 -119.37962 24446 ft 454 kts 150°
2026-04-23 03:45 34.78188 -119.35695 23722 ft 450 kts 150°
2026-04-23 03:45 34.75632 -119.33419 23467 ft 463 kts 150°
2026-04-23 03:45 34.72953 -119.31054 22771 ft 490 kts 150°
2026-04-23 03:45 34.70146 -119.28607 22200 ft 499 kts 149°
2026-04-23 03:46 34.67335 -119.26151 21625 ft 493 kts 149°
2026-04-23 03:46 34.64568 -119.23731 21126 ft 488 kts 149°
2026-04-23 03:46 34.61815 -119.21349 20612 ft 484 kts 150°
2026-04-23 03:46 34.59069 -119.18988 20118 ft 480 kts 150°
2026-04-23 03:47 34.56391 -119.16685 19619 ft 477 kts 150°
2026-04-23 03:47 34.54574 -119.15105 19297 ft 475 kts 149°
2026-04-23 03:47 34.51916 -119.12752 18824 ft 473 kts 148°
2026-04-23 03:47 34.48415 -119.09630 18119 ft 469 kts 149°
2026-04-23 03:48 34.45795 -119.07304 17574 ft 465 kts 149°
2026-04-23 03:48 34.44037 -119.05750 17189 ft 463 kts 149°
2026-04-23 03:48 34.41431 -119.03480 16703 ft 458 kts 149°
2026-04-23 03:48 34.38849 -119.01251 16217 ft 453 kts 149°
2026-04-23 03:49 34.36294 -118.99047 15744 ft 450 kts 149°
2026-04-23 03:49 34.33755 -118.96850 15306 ft 447 kts 148°
2026-04-23 03:49 34.31257 -118.94606 14818 ft 446 kts 147°
2026-04-23 03:49 34.28797 -118.92352 14364 ft 443 kts 147°
2026-04-23 03:50 34.26344 -118.90110 13919 ft 441 kts 147°
2026-04-23 03:50 34.23897 -118.87876 13391 ft 440 kts 147°
2026-04-23 03:50 34.21500 -118.85672 12929 ft 437 kts 146°
2026-04-23 03:50 34.19092 -118.83456 12455 ft 432 kts 146°
2026-04-23 03:51 34.16727 -118.81280 11991 ft 423 kts 146°
2026-04-23 03:51 34.14485 -118.79045 11564 ft 411 kts 141°
2026-04-23 03:51 34.12426 -118.76767 11136 ft 392 kts 139°
2026-04-23 03:51 34.10477 -118.74570 10756 ft 375 kts 140°
2026-04-23 03:52 34.08601 -118.72489 10395 ft 360 kts 140°
2026-04-23 03:52 34.06779 -118.70498 10037 ft 346 kts 140°
2026-04-23 03:52 34.05036 -118.68605 9933 ft 326 kts 141°
2026-04-23 03:52 34.03527 -118.66675 9779 ft 311 kts 125°
2026-04-23 03:53 34.02736 -118.64232 9181 ft 312 kts 101°
2026-04-23 03:53 34.02424 -118.61664 8762 ft 306 kts 95°
2026-04-23 03:53 34.02223 -118.59148 8441 ft 298 kts 94°
2026-04-23 03:53 34.02022 -118.56697 8131 ft 290 kts 95°
2026-04-23 03:54 34.01817 -118.54320 7867 ft 281 kts 95°
2026-04-23 03:54 34.01609 -118.52018 7630 ft 272 kts 95°
2026-04-23 03:54 34.01401 -118.49791 7402 ft 263 kts 95°
2026-04-23 03:54 34.01198 -118.47637 7184 ft 254 kts 95°
2026-04-23 03:55 34.01038 -118.45545 6970 ft 248 kts 86°
2026-04-23 03:55 34.01336 -118.43493 6807 ft 257 kts 74°
2026-04-23 03:55 34.01756 -118.41317 6593 ft 273 kts 76°
2026-04-23 03:55 34.02157 -118.39073 6330 ft 272 kts 77°
2026-04-23 03:56 34.02538 -118.36878 6063 ft 263 kts 77°
2026-04-23 03:56 34.02866 -118.34745 5794 ft 255 kts 80°
2026-04-23 03:56 34.03081 -118.32654 5533 ft 248 kts 81°
2026-04-23 03:56 34.03289 -118.30607 5283 ft 243 kts 81°
2026-04-23 03:57 34.03490 -118.28608 5042 ft 239 kts 79°
2026-04-23 03:57 34.03735 -118.26658 4826 ft 236 kts 78°
2026-04-23 03:57 34.03995 -118.24713 4674 ft 234 kts 78°
2026-04-23 03:57 34.04229 -118.22772 4543 ft 236 kts 86°
2026-04-23 03:58 34.04241 -118.20787 4430 ft 239 kts 88°
2026-04-23 03:58 34.04226 -118.18763 4308 ft 242 kts 87°
2026-04-23 03:58 34.04166 -118.16741 4169 ft 242 kts 102°
2026-04-23 03:58 34.03439 -118.14988 4073 ft 228 kts 132°
2026-04-23 03:59 34.02206 -118.13871 4002 ft 222 kts 158°
2026-04-23 03:59 34.00724 -118.13527 3905 ft 213 kts 185°
2026-04-23 03:59 33.99300 -118.13777 3801 ft 202 kts 192°
2026-04-23 03:59 33.98075 -118.14435 3631 ft 190 kts 230°
2026-04-23 04:00 33.97628 -118.15841 3551 ft 181 kts 270°
2026-04-23 04:00 33.97561 -118.17369 3476 ft 185 kts 266°
2026-04-23 04:00 33.97417 -118.18917 3391 ft 187 kts 265°
2026-04-23 04:00 33.97258 -118.20476 3300 ft 187 kts 264°
2026-04-23 04:01 33.97094 -118.22045 3065 ft 189 kts 264°
2026-04-23 04:01 33.96933 -118.23589 2816 ft 187 kts 264°
2026-04-23 04:01 33.96801 -118.25134 2572 ft 185 kts 264°
2026-04-23 04:01 33.96624 -118.26658 2334 ft 182 kts 264°
2026-04-23 04:02 33.96445 -118.28160 2084 ft 180 kts 264°
2026-04-23 04:02 33.96298 -118.29650 1842 ft 179 kts 264°
2026-04-23 04:02 33.96170 -118.31116 1612 ft 172 kts 266°
2026-04-23 04:02 33.95991 -118.32497 1390 ft 160 kts 263°
2026-04-23 04:03 33.95865 -118.33792 1162 ft 152 kts 264°
2026-04-23 04:03 33.95750 -118.34987 1026 ft 137 kts 263°
2026-04-23 04:03 33.95612 -118.36102 860 ft 133 kts 263°
2026-04-23 04:03 33.95510 -118.37218 710 ft 131 kts 264°
2026-04-23 04:04 33.95415 -118.38263 498 ft 123 kts 262°
2026-04-23 04:04 33.95307 -118.39259 313 ft 118 kts 261°
2026-04-23 04:04 33.95207 -118.40210 144 ft 112 kts 263°
2026-04-23 04:04 33.95121 -118.41076 91 ft 90 kts 263°
2026-04-23 04:05 33.95062 -118.41645 94 ft 53 kts 263°
2026-04-23 04:05 33.95024 -118.41988 92 ft 31 kts 259°
2026-04-23 04:05 33.94949 -118.42181 95 ft 22 kts 229°
2026-04-23 04:05 33.94850 -118.42272 97 ft 16 kts 197°
2026-04-23 04:06 33.94739 -118.42276 94 ft 16 kts 174°
2026-04-23 04:06 33.94688 -118.42185 96 ft 15 kts 84°
2026-04-23 04:06 33.94701 -118.42060 94 ft 15 kts 83°
2026-04-23 04:06 33.94713 -118.41940 92 ft 14 kts 83°
2026-04-23 04:07 33.94724 -118.41824 92 ft 14 kts 84°
2026-04-23 04:07 33.94735 -118.41706 93 ft 15 kts 82°
2026-04-23 04:07 33.94750 -118.41575 94 ft 17 kts 82°
2026-04-23 04:07 33.94769 -118.41428 93 ft 19 kts 75°
2026-04-23 04:08 33.94794 -118.41269 93 ft 20 kts 83°
2026-04-23 04:08 33.94812 -118.41094 94 ft 22 kts 83°
2026-04-23 04:08 33.94831 -118.40905 96 ft 24 kts 83°
2026-04-23 04:08 33.94852 -118.40701 93 ft 25 kts 82°
2026-04-23 04:09 33.94871 -118.40517 93 ft 20 kts 83°
2026-04-23 04:09 33.94887 -118.40366 93 ft 15 kts 83°
2026-04-23 04:09 33.94841 -118.40288 93 ft 10 kts 160°
2026-04-23 04:09 33.94787 -118.40267 93 ft 8 kts 170°
2026-04-23 04:10 33.94731 -118.40258 93 ft 8 kts 170°
2026-04-23 04:10 33.94720 -118.40222 92 ft 5 kts 86°
2026-04-23 04:10 33.94722 -118.40202 92 ft 3 kts 84°
2026-04-23 04:10 33.94723 -118.40191 93 ft 0 kts 83°
2026-04-23 04:11 33.94723 -118.40188 93 ft 0 kts 83°